AirNav   Phillips 66 Aviation Fuel
 
 1612 users online  

43NC Bahnson Gliderport
Mocksville, North Carolina, USA

GOING TO MOCKSVILLE?


FAA INFORMATION EFFECTIVE 08 NOVEMBER 2018

Location

FAA Identifier: 43NC
Lat/Long: 36-01-15.0000N / 080-30-59.0000W
36-01.250000N / 080-30.983333W
36.0208333 / -80.5163889
(estimated)
Elevation: 810 ft. / 247 m (estimated)
Variation: 07W (1995)
From city: 7 miles NE of MOCKSVILLE, NC
Time zone: UTC -5 (UTC -4 during Daylight Saving Time)
Zip code: 27028

Gliderport Operations

Gliderport use: Private use. Permission required prior to landing
Activation date: 01/2000
Control tower: no
ARTCC: ATLANTA CENTER
FSS: RALEIGH FLIGHT SERVICE STATION
Attendance: UNATNDD
Wind indicator: yes
Segmented circle: yes

Gliderport Communications

WX ASOS at INT (16 nm NE): PHONE 336-661-3096
WX AWOS-3 at EXX (18 nm SE): 119.825 (336-956-2967)

Nearby radio navigation aids

VOR radial/distance  VOR name  Freq  Var
GSOr270/26.2GREENSBORO VORTAC116.2003W
BZMr081/36.3BARRETTS MOUNTAIN VOR/DME110.8006W

 
NDB name  Hdg/Dist  Freq  Var  ID
ZEPHYR158/20.132608WZEF --.. . ..-.

Gliderport Services

Runway Information

Runway 1/19

Dimensions: 3000 x 100 ft. / 914 x 30 m
Surface: turf
RUNWAY 1  RUNWAY 19
Traffic pattern: leftright

Gliderport Ownership and Management from official FAA records

Ownership: Privately-owned
Owner: BERT BAHNSON
2078 HIWAY 801N
MOCKSVILLE, NC 27028
Phone 336-998-3160
Manager: MARY LOUISE BAHNSON
2078 HIWAY 801N
MOCKSVILLE, NC 27028
Phone 336-998-3160

Gliderport Operational Statistics

Aircraft based on the field: 20
Single engine airplanes: 4
Gliders airplanes: 15
Ultralights: 1
    

Instrument Procedures

There are no published instrument procedures at 43NC.

Some nearby airports with instrument procedures:

8A7 - Twin Lakes Airport (7 nm SE)
KINT - Smith Reynolds Airport (16 nm NE)
KEXX - Davidson County Airport (18 nm SE)
KZEF - Elkin Municipal Airport (20 nm NW)
KRUQ - Mid-Carolina Regional Airport (22 nm S)
 
Loc | Ops | Rwys | IFR | FBO | Links
Com | Nav | Svcs | Stats | Notes


 
Area around 43NC (Bahnson Gliderport)
 
Road maps at: MapQuest Bing Google
 
Aerial photo
WARNING: Photo may not be current or correct
Aerial photo of 43NC (Bahnson Gliderport)
Do you have a better or more recent aerial photo of Bahnson Gliderport that you would like to share? If so, please send us your photo.

 
Sectional chart

 
Airport distance calculator
Flying to Bahnson Gliderport? Find the distance to fly.

From to 43NC

Sunrise and sunset
Times for 13-Nov-2018
 Local
(UTC-5)
 Zulu
(UTC)
Morning civil twilight06:3011:30
Sunrise06:5811:58
Sunset17:1522:15
Evening civil twilight17:4222:42

Current date and time
Zulu (UTC)  13-Nov-2018 17:23:54
Local (UTC-5)  13-Nov-2018 12:23:54
 
METAR
KINT 
16nm NE 
131654Z 28004KT 10SM BKN004 10/08 A3002 RMK AO2 SLP168 T01000083
KEXX 
18nm SE 
131640Z AUTO 15003KT 10SM -DZ BKN003 BKN028 09/09 A3002 RMK AO2 P0001 T00850085
KRUQ 
22nm S 
131640Z AUTO 16003KT 10SM OVC004 08/08 A3003 RMK AO2 T00830076
KSVH 
27nm SW 
131640Z AUTO 00000KT 10SM OVC005 10/09 A3003 RMK AO2 T01010088
KMWK 
27nm N 
131640Z AUTO 26003KT 10SM -DZ BKN002 10/09 A3005 RMK AO2 T00980086
KGSO 
28nm E 
131654Z 17005KT 7SM BKN004 BKN031 BKN085 OVC250 10/09 A3000 RMK AO2 RAB05E46 SLP160 P0000 T01000094
KUKF 
31nm NW 
131640Z AUTO 00000KT 10SM SCT002 SCT070 BKN120 08/08 A3009 RMK AO2
TAF
KINT 
16nm NE 
131239Z 1313/1412 VRB02KT P6SM SCT004 OVC040 TEMPO 1313/1314 2SM -RA BR OVC005 FM131400 VRB02KT 6SM -RA OVC035 TEMPO 1314/1317 OVC020 FM140100 36006KT 6SM -RA OVC045 FM140600 02006KT P6SM OVC110
NOTAMs
Click for the latest NOTAMs
NOTAMs are issued by the DoD/FAA and will open in a separate window not controlled by AirNav.

 

 
 

Would you like to see your business listed on this page?

 If your business provides an interesting product or service to pilots, flight crews, aircraft, or users of the Bahnson Gliderport, you should consider listing it here.  To start the listing process, click on the button below
 
Add a business
 

Other Pages about Bahnson Gliderport

Update a link
 
Copyright © AirNav, LLC. All rights reserved. Privacy Policy  Contact